TimeCDT,TemperatureF,Dew PointF,Humidity,Sea Level PressureIn,VisibilityMPH,Wind Direction,Wind SpeedMPH,Gust SpeedMPH,PrecipitationIn,Events,Conditions,WindDirDegrees,DateUTC
12:15 AM,41.0,28.4,61,30.10,10.0,West,5.8,-,N/A,,Clear,260,2012-10-05 05:15:00
12:35 AM,41.0,28.4,61,30.10,10.0,West,6.9,-,N/A,,Clear,260,2012-10-05 05:35:00
12:55 AM,41.0,28.4,61,30.10,10.0,WSW,6.9,-,N/A,,Clear,250,2012-10-05 05:55:00
1:15 AM,39.2,28.4,65,30.10,10.0,WSW,9.2,-,N/A,,Clear,250,2012-10-05 06:15:00
1:35 AM,41.0,28.4,61,30.11,10.0,West,6.9,-,N/A,,Clear,260,2012-10-05 06:35:00
1:55 AM,39.2,28.4,65,30.10,10.0,West,6.9,-,N/A,,Clear,260,2012-10-05 06:55:00
2:15 AM,39.2,28.4,65,30.12,10.0,WSW,9.2,-,N/A,,Clear,250,2012-10-05 07:15:00
2:35 AM,39.2,28.4,65,30.11,10.0,WSW,9.2,-,N/A,,Clear,250,2012-10-05 07:35:00
2:55 AM,39.2,28.4,65,30.11,10.0,West,8.1,-,N/A,,Clear,260,2012-10-05 07:55:00
3:15 AM,39.2,28.4,65,30.11,10.0,WSW,9.2,-,N/A,,Clear,250,2012-10-05 08:15:00
3:35 AM,37.4,28.4,70,30.10,10.0,West,5.8,-,N/A,,Clear,260,2012-10-05 08:35:00
3:55 AM,37.4,28.4,70,30.11,10.0,WSW,6.9,-,N/A,,Clear,250,2012-10-05 08:55:00
4:15 AM,35.6,28.4,75,30.12,10.0,SW,6.9,-,N/A,,Clear,230,2012-10-05 09:15:00
4:35 AM,33.8,28.4,81,30.11,10.0,SW,6.9,-,N/A,,Clear,230,2012-10-05 09:35:00
4:55 AM,33.8,26.6,75,30.11,10.0,SW,6.9,-,N/A,,Clear,220,2012-10-05 09:55:00
5:15 AM,32.0,26.6,80,30.11,10.0,SW,5.8,-,N/A,,Clear,230,2012-10-05 10:15:00
5:35 AM,32.0,26.6,80,30.11,10.0,WSW,5.8,-,N/A,,Clear,240,2012-10-05 10:35:00
5:55 AM,32.0,26.6,80,30.11,10.0,WSW,5.8,-,N/A,,Clear,240,2012-10-05 10:55:00
6:15 AM,32.0,26.6,80,30.11,10.0,SW,5.8,-,N/A,,Clear,230,2012-10-05 11:15:00
6:35 AM,32.0,26.6,80,30.10,10.0,WSW,5.8,-,N/A,,Clear,250,2012-10-05 11:35:00
6:55 AM,32.0,26.6,80,30.11,10.0,SW,5.8,-,N/A,,Clear,230,2012-10-05 11:55:00
7:15 AM,32.0,26.6,80,30.11,10.0,SW,5.8,-,N/A,,Clear,230,2012-10-05 12:15:00
7:35 AM,32.0,28.4,87,30.11,10.0,SW,5.8,-,N/A,,Clear,220,2012-10-05 12:35:00
7:55 AM,33.8,28.4,81,30.12,10.0,WSW,9.2,-,N/A,,Clear,240,2012-10-05 12:55:00
8:15 AM,35.6,28.4,75,30.12,10.0,SW,10.4,-,N/A,,Clear,230,2012-10-05 13:15:00
8:35 AM,37.4,30.2,75,30.11,10.0,WSW,10.4,-,N/A,,Clear,240,2012-10-05 13:35:00
8:55 AM,37.4,28.4,70,30.11,10.0,WSW,12.7,-,N/A,,Clear,250,2012-10-05 13:55:00
9:15 AM,41.0,28.4,61,30.10,10.0,WSW,13.8,-,N/A,,Clear,250,2012-10-05 14:15:00
9:35 AM,42.8,28.4,57,30.11,10.0,West,10.4,-,N/A,,Clear,260,2012-10-05 14:35:00
9:55 AM,42.8,26.6,53,30.10,10.0,WSW,12.7,16.1,N/A,,Clear,250,2012-10-05 14:55:00
10:15 AM,42.8,26.6,53,30.09,10.0,West,13.8,23.0,N/A,,Clear,260,2012-10-05 15:15:00
10:35 AM,44.6,26.6,49,30.08,10.0,WSW,16.1,19.6,N/A,,Clear,250,2012-10-05 15:35:00
10:55 AM,44.6,24.8,46,30.08,10.0,West,12.7,19.6,N/A,,Clear,260,2012-10-05 15:55:00
11:15 AM,46.4,24.8,43,30.07,10.0,West,13.8,18.4,N/A,,Clear,260,2012-10-05 16:15:00
11:35 AM,48.2,23.0,37,30.08,10.0,WSW,20.7,26.5,N/A,,Clear,240,2012-10-05 16:35:00
11:55 AM,50.0,23.0,35,30.07,10.0,SW,17.3,24.2,N/A,,Clear,230,2012-10-05 16:55:00
12:15 PM,50.0,23.0,35,30.07,10.0,WSW,19.6,27.6,N/A,,Clear,240,2012-10-05 17:15:00
12:35 PM,48.2,21.2,34,30.05,10.0,West,13.8,24.2,N/A,,Clear,260,2012-10-05 17:35:00
12:55 PM,50.0,21.2,32,30.05,10.0,WSW,18.4,23.0,N/A,,Clear,240,2012-10-05 17:55:00
1:35 PM,50.0,19.4,30,30.03,10.0,WSW,16.1,19.6,N/A,,Clear,240,2012-10-05 18:35:00
1:55 PM,50.0,17.6,28,30.03,10.0,WSW,16.1,23.0,N/A,,Clear,240,2012-10-05 18:55:00
2:15 PM,48.2,14.0,25,30.02,10.0,West,13.8,17.3,N/A,,Clear,260,2012-10-05 19:15:00
2:35 PM,46.4,15.8,29,30.03,10.0,WSW,16.1,21.9,N/A,,Clear,250,2012-10-05 19:35:00
2:55 PM,48.2,15.8,27,30.02,10.0,WSW,16.1,20.7,N/A,,Clear,240,2012-10-05 19:55:00
3:15 PM,48.2,15.8,27,30.04,10.0,WSW,15.0,26.5,N/A,,Clear,250,2012-10-05 20:15:00
3:35 PM,46.4,17.6,32,30.04,10.0,WSW,20.7,24.2,N/A,,Clear,250,2012-10-05 20:35:00
3:55 PM,46.4,17.6,32,30.04,10.0,West,15.0,24.2,N/A,,Clear,260,2012-10-05 20:55:00
4:15 PM,46.4,17.6,32,30.04,10.0,WSW,18.4,25.3,N/A,,Clear,250,2012-10-05 21:15:00
4:35 PM,44.6,17.6,34,30.03,10.0,WSW,15.0,23.0,N/A,,Clear,250,2012-10-05 21:35:00
4:55 PM,44.6,19.4,37,30.03,10.0,WSW,19.6,-,N/A,,Clear,240,2012-10-05 21:55:00
5:15 PM,44.6,19.4,37,30.03,10.0,WSW,19.6,24.2,N/A,,Clear,240,2012-10-05 22:15:00
5:35 PM,44.6,19.4,37,30.03,10.0,SW,15.0,-,N/A,,Clear,230,2012-10-05 22:35:00
5:55 PM,44.6,19.4,37,30.03,10.0,SW,17.3,-,N/A,,Clear,230,2012-10-05 22:55:00
6:15 PM,44.6,19.4,37,30.03,10.0,SW,13.8,18.4,N/A,,Clear,230,2012-10-05 23:15:00
6:35 PM,42.8,19.4,39,30.04,10.0,SW,16.1,20.7,N/A,,Clear,230,2012-10-05 23:35:00
6:55 PM,42.8,19.4,39,30.04,10.0,SW,12.7,18.4,N/A,,Clear,230,2012-10-05 23:55:00
7:15 PM,42.8,19.4,39,30.04,10.0,SW,10.4,-,N/A,,Clear,230,2012-10-06 00:15:00
7:35 PM,41.0,19.4,42,30.04,10.0,SW,9.2,-,N/A,,Clear,230,2012-10-06 00:35:00
7:55 PM,41.0,19.4,42,30.03,10.0,SW,9.2,-,N/A,,Clear,230,2012-10-06 00:55:00
8:15 PM,41.0,21.2,45,30.03,10.0,WSW,9.2,-,N/A,,Scattered Clouds,240,2012-10-06 01:15:00
8:35 PM,41.0,21.2,45,30.03,10.0,SW,9.2,-,N/A,,Overcast,230,2012-10-06 01:35:00
8:55 PM,39.2,21.2,49,30.03,10.0,WSW,8.1,-,N/A,,Mostly Cloudy,250,2012-10-06 01:55:00
9:15 PM,41.0,21.2,45,30.03,10.0,WSW,8.1,-,N/A,,Mostly Cloudy,250,2012-10-06 02:15:00
9:35 PM,41.0,21.2,45,30.03,10.0,WSW,8.1,-,N/A,,Overcast,240,2012-10-06 02:35:00
9:55 PM,41.0,21.2,45,30.03,10.0,WSW,8.1,-,N/A,,Overcast,240,2012-10-06 02:55:00
10:35 PM,42.8,23.0,46,30.03,10.0,WNW,8.1,-,N/A,,Overcast,290,2012-10-06 03:35:00
10:55 PM,42.8,21.2,42,30.03,10.0,WNW,6.9,17.3,N/A,,Overcast,290,2012-10-06 03:55:00
11:15 PM,42.8,21.2,42,30.04,10.0,NW,15.0,20.7,N/A,,Overcast,310,2012-10-06 04:15:00
11:35 PM,41.0,21.2,45,30.04,10.0,WNW,11.5,18.4,N/A,,Overcast,300,2012-10-06 04:35:00
11:55 PM,41.0,21.2,45,30.04,10.0,WNW,6.9,18.4,N/A,,Overcast,290,2012-10-06 04:55:00